Wetbulb
64.04 65.38 67.10 68.09 68.41 69.92 70.76 71.31 72.00 72.15 71.88 72.26 73.20 73.54 74.70 75.70 75.07 73.81 73.78 74.40 74.00 73.76 73.81 74.40 75.91 75.90 75.79 75.95 76.25 76.53 77.98 78.36 76.69
61.88 63.78 65.88 67.11 69.31 70.03 71.01 71.63 71.91 72.26 71.96 72.77 73.35 73.63 74.08 74.61 74.90 74.64 74.10 74.57 74.72 74.10 75.26 74.43 75.18 75.72 75.58 75.87 76.02 76.02 76.11 74.39 75.29
61.55 63.03 64.41 66.46 67.69 69.04 71.23 71.50 72.15 72.76 72.45 72.72 73.24 73.48 73.85 74.01 74.37 74.73 74.81 74.55 74.15 73.93 74.28 74.62 75.05 75.55 75.59 75.76 75.84 76.02 76.49 76.54 75.14
62.08 62.71 63.34 64.40 66.70 68.32 69.34 71.67 71.74 72.00 72.09 72.06 72.67 73.03 73.71 73.77 73.77 74.02 74.26 74.02 74.12 74.45 74.52 74.78 75.06 75.41 75.64 75.55 75.30 75.41 75.56 75.45 75.28
62.63 63.48 63.75 64.18 64.84 66.60 67.91 68.43 69.34 69.68 69.95 69.97 71.54 73.53 74.02 73.90 73.99 74.11 73.68 73.76 74.24 74.88 74.24 74.86 74.81 75.03 75.59 75.51 75.45 76.16 74.83 74.41 72.05
60.68 62.21 63.56 64.26 64.69 65.09 64.27 65.60 66.69 67.89 68.74 68.96 68.57 68.62 70.23 71.02 72.27 73.19 73.24 74.38 74.82 74.77 74.65 74.64 74.55 74.62 74.68 74.49 75.02 74.76 74.69 74.21 73.36
59.87 60.45 61.56 62.05 62.52 63.71 64.85 66.22 66.58 67.71 69.36 69.16 68.71 67.48 67.93 68.61 69.04 70.28 71.08 71.73 73.31 75.04 75.58 75.01 74.88 74.78 74.82 74.98 74.96 74.95 74.95 74.91 74.54
58.37 58.53 59.63 60.44 60.55 62.06 63.10 64.38 66.23 67.68 68.64 68.69 68.43 66.61 66.67 67.14 68.00 68.62 68.83 69.12 69.73 70.33 73.55 75.32 75.35 75.22 74.95 74.78 74.97 74.66 74.66 74.68 74.45
57.34 57.48 58.15 59.46 60.15 60.62 61.48 62.55 63.81 65.67 67.09 67.77 68.06 67.33 66.76 66.39 65.82 66.00 66.47 67.45 67.87 68.70 68.83 73.44 75.46 74.76 74.64 74.56 74.56 69.84 68.73 73.16 74.81
57.35 57.37 57.78 58.36 58.84 59.75 60.84 61.94 63.24 63.49 64.87 67.37 67.65 66.89 66.84 66.32 66.09 65.90 66.19 65.65 66.34 67.56 68.03 69.86 74.31 74.36 75.21 75.06 75.24 67.36 67.27 68.92 74.57
57.51 57.16 56.95 57.60 58.45 59.38 60.46 61.46 62.54 63.45 64.62 66.11 67.18 67.15 67.47 67.78 67.34 67.76 67.19 66.27 66.06 67.77 68.81 69.04 71.43 74.77 75.61 75.71 75.13 66.14 65.40 67.76 74.03
56.66 56.82 57.23 57.76 59.01 59.12 60.05 60.60 62.06 62.67 63.51 65.19 66.26 66.22 66.86 67.59 68.35 68.12 68.81 68.92 69.50 69.39 67.48 69.74 71.49 74.06 75.76 75.68 75.89 64.65 63.67 66.81 73.81
56.25 57.00 57.35 57.46 58.21 58.47 58.83 59.93 61.54 61.50 62.36 63.09 63.64 64.26 64.61 66.46 68.53 68.62 68.71 69.37 69.78 68.44 68.03 70.47 71.67 73.77 75.44 72.75 75.59 64.06 62.28 65.49 73.49
56.28 56.45 56.56 57.23 56.64 56.66 57.94 59.81 59.95 59.34 60.54 61.22 62.87 63.59 64.15 65.39 67.29 68.16 68.90 70.38 70.52 69.29 68.80 68.54 68.19 71.09 74.95 73.55 73.97 74.16 60.60 60.95 73.19
54.43 53.92 55.30 55.99 54.75 55.49 57.97 58.84 58.54 57.50 57.83 60.80 62.07 62.37 62.72 63.79 66.06 66.97 67.96 70.48 70.68 69.76 68.99 68.43 67.95 67.71 71.06 72.91 73.57 63.71 60.06 60.38 64.99
53.94 54.50 54.12 55.22 54.65 55.02 57.06 57.08 57.55 56.06 58.08 59.53 60.43 60.60 61.26 62.51 65.13 66.94 68.44 69.41 70.06 68.89 67.66 67.69 66.41 65.80 66.49 64.00 66.39 67.52 60.65 59.56 58.80
53.36 53.69 52.69 53.57 53.46 53.30 53.95 55.46 55.66 55.70 57.17 58.23 59.06 59.21 60.50 62.14 64.31 65.65 67.50 67.52 68.25 66.62 66.71 66.98 65.68 65.36 65.20 65.83 66.09 66.83 66.59 64.24 62.43
51.04 51.67 52.10 52.74 52.51 52.42 52.80 53.98 54.95 56.23 57.45 57.36 57.48 59.06 59.78 61.48 63.95 65.47 65.94 66.79 66.51 66.18 65.77 64.64 67.55 68.24 66.96 65.69 64.83 64.95 61.61 62.38 63.49
52.23 51.50 52.24 51.92 51.98 51.49 51.48 52.53 53.15 55.18 57.23 57.80 56.70 58.17 59.65 61.76 62.93 65.50 64.76 64.43 65.39 56.06 54.83 51.40 51.95 51.22 57.73 65.39 56.84 54.12 52.49 48.50 49.59
49.97 51.12 51.55 50.58 50.28 50.54 51.51 51.56 52.06 53.94 54.93 56.86 57.09 57.43 60.20 61.96 60.61 62.87 63.26 63.98 64.36 63.79 62.07 51.22 49.59 47.78 47.96 48.50 48.32 50.68 49.95 49.59 49.59
MSLP
1012.90 1011.76 1010.86 1009.85 1009.35 1009.51 1009.75 1010.08 1010.87 1011.36 1011.80 1012.45 1013.17 1013.75 1014.03 1014.59 1015.17 1015.55 1015.91 1016.13 1016.11 1016.22 1016.23 1016.28 1016.26 1016.54 1016.63 1016.75 1016.85 1017.06 1017.17 1017.62 1017.83
1012.68 1012.47 1012.02 1011.38 1010.61 1010.10 1010.13 1010.32 1010.96 1011.73 1012.43 1012.71 1013.00 1013.47 1014.12 1014.33 1014.62 1014.89 1015.16 1015.57 1015.72 1015.82 1015.94 1015.97 1016.13 1016.13 1016.25 1016.28 1016.27 1016.42 1016.73 1017.03 1017.33
1014.15 1013.62 1013.18 1012.69 1012.25 1011.72 1010.88 1010.84 1011.35 1011.82 1012.27 1012.52 1013.03 1013.52 1014.03 1014.36 1014.61 1014.75 1014.85 1015.09 1015.34 1015.55 1015.61 1015.74 1015.69 1015.80 1015.94 1016.01 1016.03 1016.05 1016.22 1016.60 1016.83
1015.21 1014.72 1014.32 1013.91 1013.49 1013.01 1012.62 1011.98 1011.95 1012.13 1012.52 1012.77 1012.78 1012.99 1013.41 1013.64 1013.90 1014.28 1014.82 1014.73 1014.62 1014.57 1015.02 1015.29 1015.18 1015.04 1015.10 1015.26 1015.58 1015.62 1015.74 1016.02 1016.17
1015.89 1015.66 1015.29 1014.84 1014.48 1014.13 1013.91 1013.54 1013.35 1013.22 1013.02 1012.92 1012.75 1012.67 1012.89 1013.01 1013.51 1013.82 1013.95 1014.36 1014.44 1014.37 1014.07 1014.10 1014.42 1014.48 1014.43 1014.56 1014.60 1014.88 1015.23 1015.56 1016.08
1016.01 1015.76 1015.54 1015.26 1015.10 1014.95 1014.88 1014.64 1014.69 1014.23 1013.91 1013.77 1013.74 1012.87 1012.13 1012.38 1012.10 1012.84 1013.52 1013.61 1013.78 1013.77 1013.70 1013.58 1013.45 1013.55 1013.57 1013.62 1013.79 1014.08 1014.33 1014.85 1015.15
1016.42 1016.26 1015.98 1015.68 1015.46 1015.38 1015.26 1015.01 1014.88 1014.51 1014.02 1013.77 1013.90 1014.18 1013.33 1012.58 1013.10 1012.34 1012.14 1012.90 1013.31 1013.26 1013.21 1012.96 1012.74 1012.54 1012.51 1012.64 1012.77 1013.02 1013.49 1013.80 1014.05
1016.67 1016.50 1016.34 1016.16 1015.91 1015.80 1015.59 1015.26 1014.91 1014.48 1014.01 1013.48 1013.31 1013.30 1013.31 1013.14 1013.30 1013.34 1012.63 1012.77 1012.67 1012.67 1012.48 1012.22 1012.01 1011.91 1011.85 1011.94 1012.08 1011.97 1012.28 1012.95 1013.21
1016.88 1016.90 1016.89 1016.69 1016.36 1015.97 1015.60 1015.39 1014.88 1014.43 1013.93 1013.47 1013.12 1013.16 1013.07 1013.02 1013.04 1012.72 1012.85 1012.42 1012.11 1012.12 1011.99 1011.51 1011.07 1010.89 1011.02 1010.87 1010.87 1010.83 1011.09 1011.71 1012.26
1017.06 1017.13 1017.04 1016.82 1016.72 1016.39 1015.87 1015.43 1015.18 1014.47 1013.91 1013.54 1013.21 1013.04 1012.71 1012.55 1012.43 1012.27 1012.19 1012.03 1011.80 1011.68 1011.19 1010.77 1010.27 1009.94 1009.83 1009.93 1009.86 1009.88 1010.26 1010.52 1010.99
1017.30 1017.26 1017.07 1016.84 1016.71 1016.48 1016.11 1015.55 1015.04 1014.66 1014.07 1013.41 1013.07 1012.74 1012.41 1012.02 1011.78 1011.65 1011.62 1011.04 1011.22 1010.95 1010.53 1009.65 1009.42 1008.93 1008.92 1008.78 1008.57 1009.03 1009.66 1009.86 1010.05
1017.55 1017.46 1017.26 1016.93 1016.63 1016.35 1015.97 1015.58 1015.09 1014.57 1014.04 1013.43 1012.84 1012.41 1012.15 1011.74 1011.42 1011.18 1010.73 1010.47 1010.41 1009.63 1009.51 1009.16 1008.39 1007.99 1007.94 1008.13 1007.50 1007.46 1008.56 1009.50 1009.24
1017.62 1017.44 1017.24 1016.95 1016.60 1016.25 1015.67 1015.30 1014.99 1014.45 1013.85 1013.45 1012.80 1012.29 1011.83 1011.25 1010.82 1010.48 1010.18 1009.75 1009.44 1009.54 1009.12 1008.51 1007.50 1007.12 1006.97 1006.92 1006.92 1006.87 1007.35 1008.32 1008.51
1017.80 1017.59 1017.14 1016.79 1016.42 1015.97 1015.47 1015.14 1014.78 1014.34 1013.74 1013.10 1012.90 1012.45 1011.79 1011.02 1010.41 1010.01 1009.44 1009.13 1008.94 1008.61 1008.42 1008.17 1007.31 1006.70 1006.16 1006.05 1006.00 1006.23 1006.64 1007.06 1007.36
1017.69 1017.47 1016.90 1016.50 1016.24 1015.67 1015.20 1014.96 1014.61 1014.10 1013.59 1013.06 1012.67 1012.18 1011.51 1010.83 1010.24 1009.62 1008.89 1008.30 1008.10 1007.80 1007.74 1007.48 1007.03 1006.49 1005.22 1005.04 1005.27 1005.92 1006.62 1006.66 1006.27
1017.44 1017.19 1016.89 1016.45 1015.93 1015.34 1014.97 1014.68 1014.43 1013.83 1013.18 1012.90 1012.38 1011.89 1011.15 1010.39 1009.81 1008.98 1008.33 1007.68 1007.37 1007.24 1006.92 1006.78 1006.64 1006.42 1006.21 1005.59 1005.58 1005.87 1006.46 1006.89 1007.35
1017.54 1017.21 1016.90 1016.51 1016.03 1015.44 1014.89 1014.50 1014.08 1013.60 1012.94 1012.45 1011.92 1011.35 1010.69 1009.96 1009.19 1008.48 1007.94 1007.48 1007.36 1007.06 1006.90 1006.58 1006.84 1006.32 1005.85 1006.07 1005.61 1005.56 1006.38 1007.20 1007.45
1017.62 1017.20 1016.86 1016.49 1016.07 1015.56 1015.02 1014.53 1013.82 1013.06 1012.32 1011.92 1011.40 1010.70 1010.12 1009.39 1008.57 1008.09 1007.55 1007.24 1007.05 1006.91 1006.55 1006.53 1006.94 1006.54 1006.21 1005.93 1005.90 1006.18 1006.22 1006.69 1006.38
1017.55 1017.23 1016.88 1016.52 1016.17 1015.71 1015.13 1014.43 1013.64 1012.75 1012.02 1011.49 1011.11 1010.31 1009.41 1008.78 1008.34 1007.60 1007.04 1006.77 1006.38 1006.50 1006.71 1006.41 1006.28 1006.65 1006.21 1005.74 1006.13 1005.89 1006.01 1005.41 1005.23
1017.86 1017.29 1016.89 1016.56 1016.14 1015.71 1015.05 1014.28 1013.51 1012.76 1012.10 1011.32 1010.77 1010.23 1009.46 1008.62 1008.08 1007.25 1006.69 1006.19 1005.98 1005.90 1005.86 1005.90 1006.19 1006.10 1005.81 1005.93 1006.04 1005.32 1005.17 1004.50 1004.67
Wind_Speed
18 21 20 18 1 8 12 15 16 16 17 16 17 17 17 15 16 11 11 12 10 10 9 9 10 11 11 12 12 9 9 6 7
25 22 21 20 15 5 7 10 12 13 12 12 14 16 13 14 14 15 13 14 13 11 10 9 11 11 12 13 13 12 11 9 9
21 21 21 19 17 16 9 5 7 10 9 10 10 10 10 10 11 13 12 11 13 14 12 11 11 11 11 13 12 12 10 8 8
17 18 18 16 16 15 14 9 3 6 7 6 7 8 9 10 10 12 11 13 13 14 13 12 13 12 12 12 12 12 10 11 10
13 13 15 16 16 15 14 13 9 11 11 10 7 5 5 6 7 9 10 12 14 13 14 14 14 13 12 12 12 10 10 11 7
13 14 14 13 13 13 10 8 8 7 7 7 2 4 11 8 9 7 8 10 12 14 14 14 15 15 15 14 14 13 12 12 13
11 12 13 13 13 12 12 9 6 8 12 12 8 8 6 2 3 3 6 6 9 12 14 15 16 16 16 17 15 14 14 13 14
10 12 13 14 15 13 12 12 11 9 7 8 6 4 5 7 6 8 8 10 10 12 14 14 16 16 16 16 15 13 15 15 15
9 10 11 13 15 17 15 14 14 13 11 9 6 4 6 6 8 7 9 10 11 12 11 15 15 17 16 16 13 15 16 15 14
9 12 14 14 14 14 15 14 14 14 14 11 9 8 8 8 7 7 8 8 10 14 15 15 16 17 17 17 16 16 18 21 15
10 15 17 16 13 13 14 16 14 14 13 12 10 10 11 9 8 8 8 7 12 15 15 15 16 17 18 17 15 17 19 21 17
13 16 15 15 14 15 14 14 13 13 13 12 11 11 11 12 10 10 9 8 10 11 12 14 16 16 17 18 17 21 20 18 16
16 17 15 15 16 16 14 13 12 12 11 11 11 12 14 14 12 11 11 11 9 8 7 12 12 15 16 18 18 17 21 20 13
16 14 17 16 14 14 14 12 12 12 12 11 10 12 13 13 12 12 12 12 9 8 9 10 6 6 13 14 14 13 19 23 14
15 15 17 15 13 14 13 13 12 14 14 13 12 12 13 13 12 10 10 12 9 10 9 9 10 8 3 8 8 11 13 18 19
15 14 13 14 14 15 14 13 12 15 15 14 13 13 12 13 13 9 9 9 8 9 7 6 7 8 7 3 1 2 11 8 1
15 14 13 12 14 14 13 11 11 12 15 14 14 14 12 11 10 10 7 5 4 3 4 4 6 6 6 8 5 6 5 6 3
14 15 13 12 11 12 13 13 13 15 14 13 13 13 11 11 8 8 7 5 5 4 4 4 5 6 6 5 6 5 8 12 9
14 14 12 10 11 12 13 13 13 13 13 9 11 12 9 7 8 7 6 5 5 8 10 8 6 10 4 3 4 4 8 10 13
14 13 11 11 12 12 12 12 12 12 12 11 9 9 11 8 7 7 6 5 5 6 2 3 7 7 9 4 1 9 12 14 9
Wind_Direction
15 18 14 17 282 213 209 204 198 194 190 199 199 202 203 203 209 217 226 230 236 235 236 234 232 222 227 230 233 232 229 222 225
18 16 17 17 9 271 228 212 204 200 197 206 205 210 213 209 208 213 220 228 232 235 236 240 241 239 234 231 226 223 229 228 229
16 17 16 17 18 8 347 239 195 198 193 199 212 219 222 228 231 231 230 227 235 240 241 239 244 238 238 241 235 234 226 223 225
17 20 22 19 21 24 18 29 127 145 144 171 188 202 217 222 225 235 241 242 237 232 239 240 241 234 231 226 233 238 227 228 220
26 31 33 32 31 27 33 34 64 102 112 116 113 133 199 210 245 255 247 248 255 247 239 234 238 243 238 236 230 227 230 219 191
14 19 21 20 23 25 20 12 9 31 42 50 344 155 149 146 156 186 247 255 254 256 248 248 238 236 232 229 228 223 213 217 213
3 6 7 9 11 13 11 3 329 286 298 295 279 295 321 108 297 207 187 252 271 262 258 248 243 236 233 231 229 224 223 212 217
2 6 5 2 358 0 0 355 344 331 304 316 297 279 268 286 285 275 273 257 254 258 262 249 246 241 235 232 228 220 216 220 223
343 351 349 344 342 339 344 348 344 335 329 336 329 277 259 275 268 281 274 260 263 259 256 258 242 237 235 224 224 215 198 210 219
317 331 331 331 329 326 326 331 335 334 327 320 316 302 293 287 277 278 274 265 272 270 261 261 249 238 229 228 222 203 197 195 217
305 324 323 321 322 320 319 319 324 327 328 320 311 308 305 304 302 294 277 269 262 266 262 255 254 242 234 225 215 192 199 197 211
310 313 313 312 312 315 313 309 316 321 322 325 324 325 320 311 299 293 288 279 277 295 255 261 255 245 236 232 225 187 194 195 210
315 315 314 312 314 308 306 309 315 316 313 316 318 327 319 317 306 299 289 279 275 288 299 272 257 249 235 232 234 196 188 190 214
314 314 316 317 315 311 303 306 312 306 306 302 312 313 313 312 312 306 296 279 260 276 284 276 273 268 239 233 223 224 192 188 200
318 317 318 311 302 306 308 311 315 306 296 303 305 306 305 305 303 303 297 283 264 269 280 280 277 303 264 234 221 222 212 213 200
322 325 326 324 316 312 310 312 314 304 301 304 300 296 294 296 298 296 294 308 282 278 294 300 289 275 257 174 177 193 244 209 300
324 328 322 321 320 314 311 313 303 292 300 301 296 289 285 284 287 291 283 297 294 289 277 295 295 282 256 249 220 185 182 173 177
325 325 326 325 319 315 317 315 308 303 298 302 295 289 284 283 280 276 281 273 282 268 254 238 272 275 285 279 261 217 187 178 161
333 328 322 323 320 321 316 313 315 309 301 296 290 289 288 286 288 276 268 279 294 216 242 280 202 244 235 311 293 255 214 173 135
324 330 327 328 325 321 316 324 322 327 341 324 283 283 285 285 281 290 295 292 289 293 293 321 305 295 292 169 160 323 315 319 80